AA0RD-13 Weather Reports


Display with metric or nautical units.
time (UTC)temp
F
wind
direction
speed
MPH
gust
MPH
rain 1hr
in
rain 24hr
in
rain mn
in
humidity
%
barometer
mb
20260503221325 65 281 4.0 7.0 0.00 0.00 0.00 65 1012.4
20260503220816 66 281 5.0 7.0 0.00 0.00 0.00 61 1012.3
20260503220327 66 288 3.0 4.0 0.00 0.00 0.00 63 1012.4
20260503215823 65 288 3.0 4.0 0.00 0.00 0.00 65 1012.5
20260503215314 65 319 3.0 4.0 0.00 0.00 0.00 66 1012.6
20260503214825 65 319 3.0 4.0 0.00 0.00 0.00 64 1012.6
20260503214317 66 319 3.0 4.0 0.00 0.00 0.00 64 1012.7
20260503213829 66 319 3.0 4.0 0.00 0.00 0.00 64 1012.8
20260503213321 66 319 3.0 4.0 0.00 0.00 0.00 65 1012.7
20260503212832 65 319 3.0 4.0 0.00 0.00 0.00 65 1012.8
20260503212344 65 319 3.0 5.0 0.00 0.00 0.00 64 1012.8
20260503211815 65 319 4.0 5.0 0.00 0.00 0.00 63 1012.8
20260503211346 65 323 4.0 5.0 0.00 0.00 0.00 63 1012.9
20260503210820 65 315 5.0 5.0 0.00 0.00 0.00 62 1012.8
20260503210352 65 312 4.0 5.0 0.00 0.00 0.00 62 1012.9
20260503205822 65 320 4.0 5.0 0.00 0.00 0.00 63 1013.0
20260503205315 65 310 4.0 5.0 0.00 0.00 0.00 62 1013.1
20260503204825 65 288 3.0 4.0 0.00 0.00 0.00 67 1013.1
20260503204317 64 288 3.0 5.0 0.00 0.00 0.00 69 1013.1
20260503203828 63 288 4.0 5.0 0.00 0.00 0.00 71 1013.3
20260503203320 62 288 5.0 5.0 0.00 0.00 0.00 76 1013.2
20260503202815 62 288 4.0 5.0 0.00 0.00 0.00 77 1013.2
20260503202347 62 284 4.0 5.0 0.00 0.00 0.00 77 1013.2
20260503201818 62 281 4.0 5.0 0.00 0.00 0.00 76 1013.3
20260503201330 62 281 3.0 5.0 0.00 0.00 0.00 76 1013.3
20260503200821 62 279 4.0 6.0 0.00 0.00 0.00 75 1013.3
20260503200331 62 278 3.0 4.0 0.00 0.00 0.00 75 1013.4
20260503195822 63 294 3.0 4.0 0.00 0.00 0.00 72 1013.5
20260503195314 63 281 3.0 4.0 0.00 0.00 0.00 72 1013.5
20260503194825 63 288 3.0 3.0 0.00 0.00 0.00 70 1013.6
20260503194317 63 274 3.0 4.0 0.00 0.00 0.00 70 1013.6
20260503193849 63 274 3.0 4.0 0.00 0.00 0.00 71 1013.6
20260503193324 63 294 3.0 4.0 0.00 0.00 0.00 71 1013.7
20260503192815 63 294 4.0 4.0 0.00 0.00 0.00 72 1013.8
20260503192327 63 285 3.0 5.0 0.00 0.00 0.00 72 1013.9
20260503191818 63 289 4.0 5.0 0.00 0.00 0.00 70 1013.9
20260503191331 63 281 3.0 4.0 0.00 0.00 0.00 72 1013.8
20260503190822 62 281 3.0 7.0 0.00 0.00 0.00 72 1013.9
20260503190314 61 280 4.0 9.0 0.00 0.00 0.00 72 1014.0
20260503185825 62 284 7.0 9.0 0.00 0.00 0.00 70 1013.9
20260503185321 65 293 3.0 4.0 0.00 0.00 0.00 67 1013.9
20260503184834 65 288 3.0 4.0 0.00 0.00 0.00 67 1014.0
20260503184324 64 292 3.0 4.0 0.00 0.00 0.00 69 1014.0
20260503183816 64 292 2.0 3.0 0.00 0.00 0.00 70 1014.0
20260503183328 63 282 2.0 4.0 0.00 0.00 0.00 71 1014.2
20260503182819 62 273 3.0 4.0 0.00 0.00 0.00 71 1014.4
20260503182330 62 273 3.0 4.0 0.00 0.00 0.00 72 1014.5
20260503181822 61 282 3.0 4.0 0.00 0.00 0.00 73 1014.6
20260503181316 61 298 3.0 5.0 0.00 0.00 0.00 73 1014.7
20260503180828 61 298 4.0 5.0 0.00 0.00 0.00 73 1014.8
20260503180319 61 298 4.0 5.0 0.00 0.00 0.00 71 1014.8
20260503175831 62 277 4.0 4.0 0.00 0.00 0.00 70 1014.7
20260503175322 62 277 3.0 3.0 0.00 0.00 0.00 71 1014.7
20260503174813 63 350 2.0 3.0 0.00 0.00 0.00 71 1014.8
20260503174325 62 350 1.0 2.0 0.00 0.00 0.00 71 1014.9
20260503173816 62 350 1.0 3.0 0.00 0.00 0.00 71 1014.9
20260503173328 62 350 2.0 3.0 0.00 0.00 0.00 71 1014.9
20260503172822 61 350 2.0 3.0 0.00 0.00 0.00 72 1015.0
20260503172354 61 350 3.0 4.0 0.00 0.00 0.00 72 1015.0
20260503171843 60 350 3.0 4.0 0.00 0.00 0.00 74 1014.9
20260503171314 60 350 3.0 3.0 0.00 0.00 0.00 74 1015.0
20260503170846 59 350 2.0 4.0 0.00 0.00 0.00 75 1014.9
20260503170336 59 350 3.0 4.0 0.00 0.00 0.00 77 1015.1
20260503150816 61 252 4.0 5.0 0.00 0.00 0.00 72 1015.4
20260503150328 62 252 4.0 5.0 0.00 0.00 0.00 73 1015.5
20260503131323 55 178 0.0 2.0 0.00 0.01 0.00 83 1014.8
20260503130814 54 178 0.0 3.0 0.00 0.01 0.00 84 1014.7
20260503130326 54 178 2.0 3.0 0.00 0.01 0.00 85 1014.8
20260503110814 54 187 4.0 6.0 0.00 0.01 0.00 83 1014.7
20260503110345 55 187 4.0 6.0 0.00 0.01 0.00 83 1014.7
20260503090328 56 245 7.0 10.0 0.00 0.01 0.00 83 1014.5
20260503081328 54 244 8.0 11.0 0.00 0.01 0.00 85 1014.5
20260503080820 55 244 10.0 11.0 0.00 0.01 0.00 85 1014.5
20260503080332 54 239 9.0 12.0 0.00 0.01 0.00 86 1014.5
20260503072833 54 242 10.0 11.0 0.00 0.01 0.00 87 1014.5
20260503072324 54 247 9.0 11.0 0.00 0.01 0.00 87 1014.5
20260503071835 54 241 9.0 11.0 0.00 0.01 0.00 87 1014.5
20260503071346 54 239 9.0 11.0 0.00 0.01 0.01 88 1014.5
20260503070837 54 244 9.0 11.0 0.00 0.01 0.01 87 1014.5
20260503070346 54 246 10.0 12.0 0.00 0.01 0.01 87 1014.5
20260503060326 53 237 9.0 10.0 0.00 0.01 0.01 90 1014.6
20260503054826 53 241 10.0 12.0 0.00 0.01 0.01 89 1014.6
20260503054317 53 241 11.0 13.0 0.00 0.01 0.01 89 1014.5
20260503053829 54 241 10.0 13.0 0.00 0.01 0.01 88 1014.6
20260503053321 54 229 10.0 14.0 0.00 0.01 0.01 88 1014.6
20260503052833 54 236 12.0 16.0 0.00 0.01 0.01 89 1014.6
20260503052324 54 234 12.0 16.0 0.00 0.01 0.01 89 1014.7
20260503051814 54 229 12.0 14.0 0.00 0.01 0.01 88 1014.7
20260503051326 54 230 12.0 15.0 0.00 0.01 0.01 88 1014.7
20260503050837 54 235 13.0 15.0 0.00 0.01 0.01 86 1014.7
20260503050331 55 242 14.0 16.0 0.00 0.01 0.01 81 1014.6
20260503045822 60 240 13.0 16.0 0.00 0.01 0.01 73 1014.6
20260503045314 62 219 5.0 7.0 0.00 0.01 0.01 68 1014.5
20260503044823 63 219 5.0 6.0 0.00 0.01 0.01 66 1014.5
20260503044315 65 198 3.0 4.0 0.00 0.01 0.01 62 1014.5
20260503043826 66 234 3.0 4.0 0.00 0.01 0.01 59 1014.4
20260503043318 67 234 2.0 4.0 0.00 0.01 0.01 55 1014.4
20260503042830 68 234 2.0 4.0 0.00 0.01 0.01 54 1014.3
20260503042343 68 234 2.0 3.0 0.00 0.01 0.01 51 1014.2
20260503041816 68 234 2.0 3.0 0.00 0.01 0.01 53 1014.2
20260503041349 69 234 0.0 3.0 0.00 0.01 0.01 50 1014.2
20260503040838 69 234 1.0 3.0 0.00 0.01 0.01 50 1014.1
20260503040329 69 234 0.0 0.0 0.00 0.01 0.01 51 1014.1
20260503035820 70 234 0.0 0.0 0.00 0.01 0.01 49 1014.0
20260503035332 70 234 0.0 0.0 0.00 0.01 0.01 48 1013.9
20260503034823 71 234 0.0 1.0 0.00 0.01 0.01 48 1013.8
20260503034315 72 234 1.0 5.0 0.00 0.01 0.01 47 1013.7
20260503033826 72 234 2.0 5.0 0.00 0.01 0.01 45 1013.5
20260503033338 72 234 4.0 6.0 0.00 0.01 0.01 45 1013.5
20260503032827 72 234 4.0 6.0 0.00 0.01 0.01 46 1013.4
20260503032316 72 236 0.0 0.0 0.00 0.01 0.01 45 1013.5
20260503031831 72 236 0.0 2.0 0.00 0.01 0.01 46 1013.5
20260503031322 72 236 0.0 4.0 0.00 0.01 0.01 46 1013.5
20260503030814 72 236 3.0 5.0 0.00 0.01 0.01 47 1013.7
20260503030325 71 236 4.0 6.0 0.00 0.01 0.01 48 1013.7
20260503025817 71 225 3.0 6.0 0.00 0.01 0.01 49 1013.6
20260503025328 71 225 5.0 7.0 0.00 0.01 0.01 49 1013.7
20260503024819 70 217 6.0 8.0 0.00 0.01 0.01 52 1013.7
20260503024331 70 233 6.0 8.0 0.00 0.01 0.01 54 1013.7
20260503023827 69 225 7.0 8.0 0.00 0.01 0.01 55 1013.7
20260503023319 70 236 7.0 9.0 0.00 0.01 0.01 54 1013.6
20260503022831 70 233 7.0 9.0 0.00 0.01 0.01 54 1013.7
20260503022343 70 232 6.0 10.0 0.00 0.01 0.01 53 1013.7
20260503021833 69 236 8.0 9.0 0.00 0.01 0.01 55 1013.7
20260503021345 70 232 6.0 9.0 0.00 0.01 0.01 56 1013.7
20260503020834 69 229 6.0 8.0 0.00 0.01 0.01 60 1013.7
20260503020326 68 233 4.0 6.0 0.00 0.01 0.01 61 1013.8
20260503015818 69 216 5.0 8.0 0.00 0.01 0.01 59 1013.8
20260503015329 69 232 5.0 9.0 0.00 0.01 0.01 59 1013.8
20260503014825 69 240 6.0 9.0 0.00 0.01 0.01 58 1013.9
20260503014337 69 233 7.0 9.0 0.00 0.01 0.01 59 1013.9
20260503013827 68 222 6.0 8.0 0.00 0.01 0.01 60 1013.9
20260503013338 68 221 6.0 7.0 0.00 0.01 0.01 57 1014.0
20260503012828 67 242 6.0 8.0 0.00 0.01 0.01 58 1014.1
20260503012319 67 241 5.0 7.0 0.00 0.01 0.01 58 1014.1
20260503011831 68 254 5.0 7.0 0.00 0.01 0.01 58 1014.3
20260503011342 67 254 4.0 7.0 0.00 0.01 0.01 59 1014.3
20260503010855 68 258 5.0 7.0 0.00 0.01 0.01 58 1014.3
20260503010324 68 243 4.0 5.0 0.00 0.01 0.01 58 1014.2
20260503005820 68 260 3.0 6.0 0.00 0.01 0.01 58 1014.2
20260503005332 67 260 4.0 7.0 0.00 0.01 0.01 58 1014.2
20260503004823 67 261 6.0 7.0 0.00 0.01 0.01 59 1014.3
20260503004332 68 268 4.0 6.0 0.00 0.01 0.01 59 1014.3
20260503003822 68 265 4.0 6.0 0.00 0.01 0.01 59 1014.3
20260503003314 68 267 4.0 6.0 0.00 0.01 0.01 59 1014.3
20260503002827 67 277 4.0 5.0 0.00 0.01 0.01 59 1014.4
20260503002338 67 277 4.0 5.0 0.00 0.01 0.01 59 1014.4
20260503001829 67 277 4.0 6.0 0.00 0.01 0.01 59 1014.3
20260503001325 67 267 4.0 6.0 0.00 0.01 0.01 59 1014.4
20260503000816 67 271 4.0 6.0 0.00 0.01 0.01 58 1014.4
20260503000328 67 275 4.0 6.0 0.00 0.01 0.01 58 1014.4
20260502235820 67 279 4.0 7.0 0.00 0.01 0.01 58 1014.5
20260502235331 67 267 6.0 7.0 0.00 0.01 0.01 58 1014.6
20260502234822 67 277 6.0 8.0 0.00 0.01 0.01 57 1014.6
20260502234314 67 274 6.0 8.0 0.00 0.01 0.01 57 1014.7
20260502233825 67 281 6.0 8.0 0.00 0.01 0.01 56 1014.7
20260502233338 67 274 7.0 8.0 0.00 0.01 0.01 56 1014.8
20260502232832 67 267 8.0 8.0 0.00 0.01 0.01 57 1014.8
20260502232324 67 262 7.0 8.0 0.00 0.01 0.01 57 1014.9
20260502231836 67 258 7.0 9.0 0.00 0.01 0.01 58 1014.8
20260502231327 67 256 7.0 9.0 0.00 0.01 0.01 58 1014.9
20260502230819 67 252 7.0 9.0 0.00 0.01 0.01 58 1014.9
20260502230350 67 254 8.0 9.0 0.00 0.01 0.01 57 1015.0
20260502225820 67 246 8.0 9.0 0.00 0.01 0.01 58 1015.1
20260502225332 68 252 7.0 9.0 0.00 0.01 0.01 57 1015.3
20260502224841 68 245 7.0 9.0 0.00 0.01 0.01 58 1015.5
20260502224331 68 241 7.0 9.0 0.00 0.01 0.01 58 1015.6
20260502223826 68 240 6.0 9.0 0.00 0.01 0.01 59 1015.7
20260502223318 68 251 7.0 9.0 0.00 0.01 0.01 59 1015.8
20260502222830 68 240 6.0 8.0 0.00 0.01 0.01 60 1015.9
20260502222320 67 240 6.0 9.0 0.00 0.01 0.01 62 1016.0
20260502221832 66 234 7.0 9.0 0.00 0.01 0.01 62 1015.9